1300495826727,0.000141811
1300495886727,0.000140815
1300495946727,0.000142019
1300496006727,0.000142910
1300496066727,0.000142503
1300499426740,0.000142722
1300499486740,0.000140641
1300499546740,0.000141594
1300499606740,0.000141300
1300499666740,0.000142392
1300503026752,0.000141409
1300503086752,0.000141800
1300503146752,0.000140504
1300503206752,0.000142014
1300503266752,0.000141519
1300506626765,0.000141481
1300506686765,0.000140674
1300506746765,0.000140765
1300506806765,0.000140745
1300506866765,0.000145622
1300510226778,0.000140747
1300510286778,0.000140555
1300510346778,0.000141455
1300510406778,0.000140193
1300510466778,0.000140809
1300513826790,0.000140739
1300513886790,0.000139961
1300513946790,0.000141769
1300514006790,0.000142161
1300514066790,0.000140755
1300531826846,0.000138047
1300531886846,0.000137809
1300531946846,0.000139261
1300532006846,0.000139032
1300532066846,0.000136486
1300535426858,0.000138626
1300535486858,0.000138117
1300535546858,0.000137694
1300535606858,0.000136971
1300535666858,0.000137439
1300539026871,0.000139923
1300539086871,0.000140156
1300539146871,0.000139293
1300539206871,0.000139829
1300539266871,0.000140099
1300542626883,0.000139032
1300542686883,0.000139035
1300542746883,0.000138736
1300542806883,0.000137728
1300542866883,0.000138331
1300542926883,0.000138176
1300542986883,0.000139002
1300543046883,0.000138292
1300543106883,0.000138629
1300543166883,0.000139239
1300543226895,0.000137102
1300543286895,0.000138785
1300543346895,0.000138530
1300543406895,0.000138464
1300543466895,0.000139238
1300543526895,0.000140439
1300543586895,0.000138989
1300543646895,0.000138954
1300543706895,0.000140062
1300543766895,0.000137195
1300543826895,0.000138596
1300543886895,0.000138898
1300543946895,0.000138977
1300544006895,0.000139887
1300544066895,0.000137921
1300544126895,0.000137847
1300544186895,0.000137809
1300544246895,0.000139176
1300544306895,0.000138984
1300544366895,0.000138823
1300544426895,0.000138815
1300544486895,0.000138604
1300544546895,0.000137965
1300544606895,0.000139679
1300544666895,0.000138374
1300544726895,0.000140204
1300544786895,0.000139554
1300544846895,0.000139829
1300544906895,0.000140830
1300544966895,0.000139753
1300545026895,0.000140521
1300545086895,0.000139143
1300545146895,0.000139443
1300545206895,0.000139958
1300545266895,0.000139169
1300545326895,0.000138608
1300545386895,0.000139728
1300545446895,0.000138708
1300545506895,0.000139933
1300545566895,0.000139277
1300545626895,0.000140446
1300545686895,0.000139158
1300545746895,0.000140167
1300545806895,0.000139225
1300545866895,0.000139556
1300545926895,0.000139233
1300545986895,0.000139847
1300546046895,0.000139335
1300546106895,0.000139575
1300546166895,0.000140677
1300546226895,0.000140382
1300546286895,0.000140291
1300546346895,0.000140360
1300546406895,0.000140415
1300546466895,0.000139760
1300546526895,0.000141520
1300546586895,0.000140546
1300546646895,0.000140922
1300546706895,0.000140690
1300546766895,0.000139742
1300546826907,0.000141127
1300546886907,0.000138744
1300546946907,0.000139764
1300547006907,0.000139064
1300547066907,0.000139967
1300547126907,0.000139402
1300547186907,0.000139201
1300547246907,0.000140074
1300547306907,0.000139615
1300547366907,0.000139901
1300547426907,0.000138929
1300547486907,0.000140078
1300547546907,0.000138953
1300547606907,0.000140035
1300547666907,0.000139296
1300547726907,0.000138549
1300547786907,0.000139309
1300547846907,0.000140300
1300547906907,0.000139271
1300547966907,0.000140642
1300548026907,0.000139131
1300548086907,0.000138816
1300548146907,0.000139384
1300548206907,0.000140202
1300548266907,0.000140015
1300548326907,0.000139660
1300548386907,0.000140841
1300548446907,0.000141219
1300548506907,0.000140643
1300548566907,0.000140434
1300548626907,0.000140442
1300548686907,0.000139636
1300548746907,0.000140166
1300548806907,0.000141206
1300548866907,0.000140153
1300548926907,0.000140706
1300548986907,0.000141263
1300549046907,0.000141782
1300549106907,0.000140748
1300549166907,0.000140765
1300549226907,0.000139897
1300549286907,0.000140780
1300549346907,0.000140388
1300549406907,0.000140740
1300549466907,0.000140132
1300549526907,0.000139707
1300549586907,0.000139943
1300549646907,0.000139377
1300549706907,0.000139837
1300549766907,0.000139783
1300549826907,0.000139523
1300549886907,0.000140138
1300549946907,0.000140115
1300550006907,0.000140476
1300550066907,0.000139951
1300550126907,0.000141073
1300550186907,0.000140714
1300550246907,0.000141899
1300550306907,0.000139825
1300550366907,0.000140180
1300550426919,0.000140183
1300550486919,0.000139780
1300550546919,0.000140059
1300550606919,0.000139723
1300550666919,0.000140390
1300550726919,0.000139829
1300550786919,0.000139933
1300550846919,0.000139764
1300550906919,0.000140693
1300550966919,0.000141583
1300551026919,0.000140982
1300551086919,0.000141034
1300551146919,0.000139793
1300551206919,0.000140211
1300551266919,0.000140635
1300551326919,0.000139969
1300551386919,0.000138419
1300551446919,0.000139288
1300551506919,0.000140329
1300551566919,0.000139304
1300551626919,0.000138290
1300551686919,0.000137910
1300551746919,0.000138842
1300551806919,0.000141312
1300551866919,0.000139633
1300551926919,0.000140348
1300551986919,0.000139869
1300552046919,0.000139537
1300552106919,0.000139966
1300552166919,0.000139868
1300552226919,0.000140164
1300552286919,0.000140861
1300552346919,0.000139561
1300552406919,0.000139583
1300552466919,0.000140564
1300552526919,0.000139928
1300552586919,0.000140313
1300552646919,0.000139244
1300552706919,0.000139964
1300552766919,0.000139835
1300552826919,0.000140371
1300552886919,0.000140052
1300552946919,0.000140416
1300553006919,0.000141372
1300553066919,0.000140547
1300553126919,0.000140554
1300553186919,0.000140873
1300553246919,0.000140739
1300553306919,0.000140916
1300553366919,0.000140537
1300553426919,0.000140722
1300553486919,0.000141747
1300553546919,0.000140522
1300553606919,0.000140981
1300553666919,0.000141168
1300557026931,0.000141348
1300557086931,0.000140557
1300557146931,0.000141937
1300557206931,0.000140957
1300557266931,0.000141055
1300560626943,0.000140442
1300560686943,0.000140025
1300560746943,0.000140651
1300560806943,0.000140033
1300560866943,0.000141614
1300564226955,0.000139239
1300564286955,0.000139312
1300564346955,0.000141048
1300564406955,0.000139799
1300564466955,0.000140268
1300567826967,0.000141828
1300567886967,0.000141525
1300567946967,0.000141319
1300568006967,0.000140694
1300568066967,0.000141533
1300571426979,0.000141706
1300571486979,0.000142683
1300571546979,0.000141128
1300571606979,0.000141995
1300571666979,0.000141104
1300575026991,0.000142170
1300575086991,0.000141835
1300575146991,0.000142630
1300575206991,0.000142047
1300575266991,0.000141914
1300578627004,0.000140164
1300578687004,0.000140924
1300578747004,0.000141620
1300578807004,0.000140133
1300578867004,0.000140923
